Location: Theydon Bois
(51.6750°N, 0.1050°E)
Time: 12:39:08
(UTC+00:00)

Envisat - Pass Details

Date: 12 December 2019
Orbit: 764 x 766 km, 98.1° (Epoch: 18 January)

Event Time Altitude Azimuth Distance (km) Brightness Sun altitude
Rises 06:42:51 0° 16° (NNE) 3,247 6.2 -10.6°
Reaches altitude 10° 06:45:12 10° 20° (NNE) 2,316 5.5 -10.3°
Maximum altitude 06:50:16 63° 102° (ESE) 859 3.6 -9.6°
Drops below altitude 10° 06:55:17 10° 183° (S) 2,297 5.8 -8.9°
Sets 06:57:36 0° 186° (S) 3,219 6.5 -8.6°
